Ellensburg, WA
on Monday, December 31, 2012

Monday
Previous Day Next Day
Daily Summary
 ActualAverage (KYKM)Record (KYKM)
Temperature
Mean Temperature °F 28°F  
Max Temperature 24°F 35°F 55°F (1954)
Min Temperature 17°F 21°F -7°F (1978)
Degree Days
Heating Degree Days 44 37  
Month to date heating degree days 1128  
Since 1 July heating degree days 2663  
Cooling Degree Days 0 0  
Month to date cooling degree days 0  
Year to date cooling degree days 472  
Moisture
Dew Point 16°F   
Average Humidity 82    
Maximum Humidity 93    
Minimum Humidity 74    
Precipitation
Precipitation 0.00 in 0.04 in 1.38 in (1996)
Month to date precipitation 1.53  
Year to date precipitation 8.25  
Snow
Snow 0.00 in 0.30 in 4.70 in (1968)
Month to date snowfall 9.4  
Year to date snowfall 21.6  
Since 1 July snowfall 13.0  
Snow Depth in   
Wind
Wind Speed 3 mph   
Max Wind Speed 7 mph   
Max Gust Speed mph   
Visibility 3 miles   
Events Fog   

Key: T is trace of precipitation, MM is missing value
Source: NWS Daily Summary
Time(PST)TemperatureDew PointHumidity Pressure Visibility Wind DirectionWind SpeedGust SpeedPrecipitationEvents Conditions
12:12 AM 19.4°F 15.8°F 86% 30.30 in 1.8 miles West 6.9 mph - N/A   Overcast
12:53 AM 19.0°F 14.0°F 81% 30.38 in 1.5 miles West 6.9 mph - N/A   Haze
1:05 AM 19.4°F 14.0°F 80% 30.30 in 3.0 miles West 5.8 mph - N/A   Haze
1:53 AM 19.0°F 14.0°F 81% 30.38 in 2.0 miles West 5.8 mph - N/A   Haze
2:28 AM 17.6°F 12.2°F 79% 30.30 in 4.0 miles West 4.6 mph - N/A   Haze
2:53 AM 18.0°F 12.9°F 81% 30.39 in 3.0 miles Calm Calm - N/A   Haze
3:23 AM 17.6°F 12.2°F 79% 30.31 in 1.8 miles Calm Calm - N/A   Haze
4:51 AM 17.6°F 12.2°F 79% 30.29 in 1.0 miles NW 3.5 mph - N/A   Haze
4:53 AM 18.0°F 12.9°F 81% 30.37 in 1.0 miles NW 3.5 mph - N/A   Haze
5:53 AM 19.0°F 14.0°F 81% 30.37 in 1.0 miles Calm Calm - N/A   Haze
6:03 AM 19.4°F 14.0°F 80% 30.29 in 0.8 miles West 3.5 mph - N/A   Haze
6:53 AM 19.0°F 14.0°F 81% 30.38 in 0.5 miles West 3.5 mph - N/A   Haze
7:53 AM 19.9°F 15.1°F 81% 30.38 in 0.2 miles West 3.5 mph - N/A   Haze
8:53 AM 19.9°F 16.0°F 85% 30.39 in 0.5 miles Calm Calm - N/A Fog Light Freezing Fog
9:53 AM 19.9°F 16.0°F 85% 30.40 in 0.8 miles Calm Calm - N/A   Mist
10:19 AM 21.2°F 17.6°F 86% 30.32 in 1.0 miles Calm Calm - N/A   Overcast
10:53 AM 21.0°F 17.1°F 85% 30.40 in 0.8 miles Calm Calm - N/A   Overcast
11:53 AM 21.9°F 18.0°F 85% 30.39 in 1.0 miles Calm Calm - N/A   Overcast
12:34 PM 21.2°F 17.6°F 86% 30.31 in 1.2 miles Calm Calm - N/A   Overcast
12:53 PM 23.0°F 19.0°F 85% 30.39 in 1.5 miles Calm Calm - N/A   Overcast
1:04 PM 21.2°F 19.4°F 93% 30.31 in 2.0 miles Calm Calm - N/A   Overcast
1:29 PM 23.0°F 19.4°F 86% 30.32 in 3.0 miles Calm Calm - N/A   Overcast
1:53 PM 23.0°F 18.0°F 81% 30.40 in 4.0 miles Calm Calm - N/A   Haze
2:53 PM 23.0°F 18.0°F 81% 30.42 in 8.0 miles Calm Calm - N/A   Overcast
3:34 PM 24.8°F 17.6°F 74% 30.35 in 8.0 miles Calm Calm - N/A   Overcast
3:53 PM 24.1°F 18.0°F 77% 30.43 in 7.0 miles Calm Calm - N/A   Overcast
4:12 PM 24.8°F 17.6°F 74% 30.36 in 9.0 miles Calm Calm - N/A   Overcast
4:53 PM 23.0°F 18.0°F 81% 30.45 in 5.0 miles SE 3.5 mph - N/A   Haze
5:53 PM 23.0°F 19.0°F 85% 30.46 in 5.0 miles Calm Calm - N/A   Overcast
6:53 PM 24.1°F 18.0°F 77% 30.46 in 5.0 miles Calm Calm - N/A   Haze
8:53 PM 24.1°F 18.0°F 77% 30.50 in 5.0 miles WNW 3.5 mph - N/A   Haze
10:53 PM 24.1°F 18.0°F 77% 30.53 in 8.0 miles Calm Calm - N/A   Overcast
11:53 PM 24.1°F 19.0°F 81% 30.54 in 6.0 miles Calm Calm - N/A   Haze
Moon Phase
Dec. 31 Jan. 04 Jan. 11 Jan. 18 Jan. 26
Sunrise:07:48 AM (PST) Moon Rise:08:13 PM (PST)
Sunset:04:23 PM (PST) Moon Set:09:18 AM (PST)

Copyright © 2014 The Weather Underground, Inc.